FW7539 Weather Reports


Display with metric or nautical units.
time (UTC)temp
F
wind
direction
speed
MPH
gust
MPH
rain 1hr
in
rain 24hr
in
rain mn
in
humidity
%
barometer
mb
20260503032457 38 0 0.0 0.0 0.00 0.00 0.00 78 1020.3
20260503032018 38 0 0.0 0.0 0.00 0.00 0.00 77 1020.3
20260503031457 39 0 0.0 0.0 0.00 0.00 0.00 77 1020.3
20260503030957 39 0 0.0 0.0 0.00 0.00 0.00 76 1020.3
20260503030518 39 0 0.0 0.0 0.00 0.00 0.00 76 1020.3
20260503025957 39 0 0.0 0.0 0.00 0.00 0.00 75 1020.3
20260503025458 40 0 0.0 0.0 0.00 0.00 0.00 76 1020.3
20260503024957 40 0 0.0 0.0 0.00 0.00 0.00 75 1020.3
20260503024458 40 0 0.0 0.0 0.00 0.00 0.00 73 1020.3
20260503023957 40 0 0.0 0.0 0.00 0.00 0.00 73 1020.3
20260503023457 41 0 0.0 0.0 0.00 0.00 0.00 72 1020.2
20260503022957 41 0 0.0 0.0 0.00 0.00 0.00 71 1020.3
20260503022458 41 0 0.0 0.0 0.00 0.00 0.00 71 1020.3
20260503021958 42 0 0.0 0.0 0.00 0.00 0.00 71 1020.2
20260503021457 42 0 0.0 0.0 0.00 0.00 0.00 71 1020.1
20260503021018 42 0 0.0 0.0 0.00 0.00 0.00 70 1020.0
20260503020518 42 0 0.0 0.0 0.00 0.00 0.00 69 1020.0
20260503015957 43 0 0.0 0.0 0.00 0.00 0.00 66 1019.9
20260503015457 43 333 0.0 1.0 0.00 0.00 0.00 65 1019.9
20260503014957 44 333 0.0 1.0 0.00 0.00 0.00 66 1019.9
20260503014458 44 333 0.0 1.0 0.00 0.00 0.00 63 1019.9
20260503013958 45 333 0.0 1.0 0.00 0.00 0.00 62 1019.8
20260503013458 46 333 0.0 1.0 0.00 0.00 0.00 61 1019.7
20260503012957 46 333 0.0 1.0 0.00 0.00 0.00 59 1019.7
20260503012518 46 333 0.0 2.0 0.00 0.00 0.00 57 1019.7
20260503011957 46 334 0.0 2.0 0.00 0.00 0.00 56 1019.6
20260503011458 46 336 0.0 2.0 0.00 0.00 0.00 56 1019.6
20260503010958 47 344 0.0 2.0 0.00 0.00 0.00 57 1019.5
20260503010458 47 351 0.0 2.0 0.00 0.00 0.00 54 1019.4
20260503010019 47 354 1.0 2.0 0.00 0.00 0.00 54 1019.4
20260503005457 48 345 1.0 2.0 0.00 0.00 0.00 53 1019.4
20260503004958 48 331 0.0 2.0 0.00 0.00 0.00 52 1019.4
20260503004518 48 334 0.0 3.0 0.00 0.00 0.00 51 1019.3
20260503003957 48 337 0.0 3.0 0.00 0.00 0.00 50 1019.3
20260503003458 49 349 1.0 3.0 0.00 0.00 0.00 50 1019.3
20260503002957 49 346 1.0 5.0 0.00 0.00 0.00 50 1019.2
20260503002457 49 342 2.0 6.0 0.00 0.00 0.00 49 1019.2
20260503001958 49 352 2.0 10.0 0.00 0.00 0.00 49 1019.1
20260503001519 49 2 2.0 10.0 0.00 0.00 0.00 48 1019.1
20260503001019 50 356 2.0 5.0 0.00 0.00 0.00 48 1019.0
20260503000457 50 344 2.0 7.0 0.00 0.00 0.00 47 1018.9
20260502235957 50 357 2.0 9.0 0.00 0.00 0.00 47 1018.9
20260502235519 50 357 2.0 9.0 0.00 0.00 0.00 46 1018.8
20260502234958 51 332 2.0 5.0 0.00 0.00 0.00 47 1018.8
20260502234457 51 332 2.0 6.0 0.00 0.00 0.00 46 1018.7
20260502233957 51 357 3.0 8.0 0.00 0.00 0.00 44 1018.7
20260502233458 52 359 3.0 11.0 0.00 0.00 0.00 43 1018.7
20260502232957 52 341 3.0 11.0 0.00 0.00 0.00 43 1018.6
20260502232458 52 322 2.0 8.0 0.00 0.00 0.00 44 1018.6
20260502231957 52 341 2.0 6.0 0.00 0.00 0.00 43 1018.6
20260502231457 52 339 2.0 6.0 0.00 0.00 0.00 45 1018.6
20260502230958 52 330 2.0 8.0 0.00 0.00 0.00 44 1018.6
20260502230518 52 344 2.0 8.0 0.00 0.00 0.00 44 1018.6
20260502225957 52 360 2.0 5.0 0.00 0.00 0.00 45 1018.5
20260502225458 52 359 2.0 11.0 0.00 0.00 0.00 44 1018.6
20260502224957 52 339 3.0 11.0 0.00 0.00 0.00 44 1018.6
20260502224457 53 347 3.0 9.0 0.00 0.00 0.00 42 1018.5
20260502223958 54 3 3.0 9.0 0.00 0.00 0.00 44 1018.5
20260502223518 53 7 3.0 9.0 0.00 0.00 0.00 44 1018.4
20260502222957 53 6 2.0 8.0 0.00 0.00 0.00 43 1018.4
20260502222458 52 8 2.0 7.0 0.00 0.00 0.00 43 1018.4
20260502221957 52 10 2.0 11.0 0.00 0.00 0.00 44 1018.5
20260502221457 52 8 3.0 11.0 0.00 0.00 0.00 43 1018.4
20260502220958 52 348 3.0 10.0 0.00 0.00 0.00 43 1018.4
20260502220457 52 285 2.0 7.0 0.00 0.00 0.00 42 1018.3
20260502215958 52 288 2.0 7.0 0.00 0.00 0.00 41 1018.3
20260502215458 52 310 2.0 7.0 0.00 0.00 0.00 41 1018.3
20260502215018 53 289 2.0 7.0 0.00 0.00 0.00 41 1018.2
20260502214458 53 335 3.0 10.0 0.00 0.00 0.00 41 1018.3
20260502213958 53 329 3.0 10.0 0.00 0.00 0.00 41 1018.3
20260502213457 54 295 3.0 9.0 0.00 0.00 0.00 41 1018.3
20260502212958 54 330 4.0 10.0 0.00 0.00 0.00 39 1018.2
20260502212457 56 351 4.0 14.0 0.00 0.00 0.00 38 1018.1
20260502212018 56 348 3.0 14.0 0.00 0.00 0.00 40 1018.1
20260502211457 55 359 3.0 11.0 0.00 0.00 0.00 41 1018.0
20260502210957 54 359 3.0 11.0 0.00 0.00 0.00 42 1018.0
20260502210457 53 3 3.0 11.0 0.00 0.00 0.00 41 1018.1
20260502205957 53 4 3.0 11.0 0.00 0.00 0.00 42 1018.0
20260502205518 53 334 3.0 9.0 0.00 0.00 0.00 42 1018.1
20260502204958 53 342 3.0 10.0 0.00 0.00 0.00 41 1018.1
20260502204457 53 357 3.0 10.0 0.00 0.00 0.00 42 1018.1
20260502203957 54 317 3.0 7.0 0.00 0.00 0.00 41 1018.1
20260502203457 54 288 3.0 9.0 0.00 0.00 0.00 40 1018.2
20260502202957 55 285 3.0 9.0 0.00 0.00 0.00 39 1018.1
20260502202457 56 310 3.0 10.0 0.00 0.00 0.00 40 1018.0
20260502201958 56 318 3.0 10.0 0.00 0.00 0.00 39 1018.1
20260502201457 56 268 3.0 9.0 0.00 0.00 0.00 40 1018.3
20260502200958 55 295 3.0 7.0 0.00 0.00 0.00 42 1018.3
20260502200458 54 8 3.0 8.0 0.00 0.00 0.00 41 1018.3
20260502195958 53 1 3.0 12.0 0.00 0.00 0.00 40 1018.3
20260502195458 53 352 3.0 12.0 0.00 0.00 0.00 41 1018.5
20260502194957 54 326 3.0 8.0 0.00 0.00 0.00 39 1018.3
20260502194457 54 293 3.0 9.0 0.00 0.00 0.00 39 1018.4
20260502194018 55 291 3.0 9.0 0.00 0.00 0.00 41 1018.4
20260502193457 55 359 3.0 12.0 0.00 0.00 0.00 44 1018.3
20260502192957 55 345 4.0 10.0 0.00 0.00 0.00 42 1018.4
20260502192458 55 327 4.0 11.0 0.00 0.00 0.00 39 1018.5
20260502191957 55 348 3.0 11.0 0.00 0.00 0.00 40 1018.5
20260502191457 56 352 4.0 14.0 0.00 0.00 0.00 41 1018.5
20260502191019 55 359 5.0 14.0 0.00 0.00 0.00 45 1018.5
20260502190457 55 3 4.0 13.0 0.00 0.00 0.00 42 1018.5
20260502185958 54 1 3.0 13.0 0.00 0.00 0.00 44 1018.6
20260502185457 54 1 4.0 11.0 0.00 0.00 0.00 41 1018.6
20260502184958 54 353 4.0 11.0 0.00 0.00 0.00 45 1018.6
20260502184458 53 326 3.0 7.0 0.00 0.00 0.00 42 1018.7
20260502183958 53 288 3.0 12.0 0.00 0.00 0.00 42 1018.7
20260502183458 53 280 4.0 12.0 0.00 0.00 0.00 40 1018.7
20260502182958 54 327 3.0 9.0 0.00 0.00 0.00 42 1018.8
20260502182457 54 351 3.0 6.0 0.00 0.00 0.00 41 1018.8
20260502181958 55 296 2.0 8.0 0.00 0.00 0.00 44 1018.8
20260502181458 55 311 3.0 11.0 0.00 0.00 0.00 42 1018.9
20260502180957 55 350 4.0 11.0 0.00 0.00 0.00 44 1018.8
20260502180458 55 346 4.0 15.0 0.00 0.00 0.00 43 1018.9
20260502170519 53 315 3.0 11.0 0.00 0.00 0.00 45 1019.4
20260502163958 53 350 3.0 10.0 0.00 0.00 0.00 42 1019.7
20260502163458 53 360 2.0 6.0 0.00 0.00 0.00 47 1019.6
20260502162957 53 360 3.0 10.0 0.00 0.00 0.00 49 1019.7
20260502162458 52 313 3.0 10.0 0.00 0.00 0.00 48 1019.7
20260502161958 53 320 4.0 12.0 0.00 0.00 0.00 46 1019.7
20260502161458 53 322 4.0 12.0 0.00 0.00 0.00 48 1019.7
20260502160958 53 307 3.0 9.0 0.00 0.00 0.00 49 1019.7
20260502160458 53 333 3.0 12.0 0.00 0.00 0.00 50 1019.8
20260502151957 51 316 2.0 5.0 0.00 0.01 0.00 53 1019.9
20260502151458 50 341 2.0 5.0 0.00 0.01 0.00 55 1019.9
20260502151019 50 1 3.0 7.0 0.00 0.01 0.00 54 1020.0
20260502150519 50 4 2.0 7.0 0.00 0.01 0.00 55 1019.9
20260502130458 45 331 2.0 6.0 0.00 0.02 0.00 66 1020.0
20260502123458 43 3 3.0 8.0 0.00 0.02 0.00 73 1019.6
20260502122958 43 5 3.0 8.0 0.00 0.02 0.00 72 1019.6
20260502122458 43 9 3.0 8.0 0.00 0.02 0.00 74 1019.6
20260502121958 42 4 3.0 7.0 0.00 0.02 0.00 73 1019.6
20260502121458 42 1 3.0 8.0 0.00 0.02 0.00 75 1019.6
20260502120958 42 5 3.0 8.0 0.00 0.02 0.00 76 1019.6
20260502120458 41 4 2.0 6.0 0.00 0.02 0.00 79 1019.5
20260502115458 39 351 1.0 3.0 0.00 0.02 0.00 85 1019.3
20260502114958 38 337 1.0 3.0 0.00 0.02 0.00 89 1019.5
20260502113957 37 240 0.0 1.0 0.00 0.02 0.00 90 1019.4
20260502113519 36 0 0.0 0.0 0.00 0.02 0.00 90 1019.3
20260502112958 36 211 0.0 1.0 0.00 0.02 0.00 90 1019.2
20260502112458 36 211 0.0 1.0 0.00 0.02 0.00 90 1019.2
20260502111958 35 0 0.0 0.0 0.00 0.02 0.00 90 1019.1
20260502111458 35 0 0.0 0.0 0.00 0.02 0.00 90 1018.9
20260502110958 35 0 0.0 0.0 0.00 0.02 0.00 90 1018.8
20260502110458 35 0 0.0 0.0 0.00 0.02 0.00 89 1018.7
20260502105958 34 0 0.0 0.0 0.00 0.02 0.00 89 1018.7
20260502105458 35 0 0.0 0.0 0.00 0.02 0.00 89 1018.7
20260502105019 35 0 0.0 0.0 0.00 0.02 0.00 89 1018.7
20260502104458 35 0 0.0 0.0 0.00 0.02 0.00 89 1018.7
20260502103958 35 0 0.0 0.0 0.00 0.02 0.00 89 1018.8
20260502103458 35 0 0.0 0.0 0.00 0.02 0.00 89 1018.9
20260502102959 35 0 0.0 0.0 0.00 0.02 0.00 89 1019.1
20260502102458 35 0 0.0 0.0 0.00 0.02 0.00 89 1019.0
20260502101958 35 0 0.0 0.0 0.00 0.02 0.00 89 1018.9
20260502101459 35 0 0.0 0.0 0.00 0.02 0.00 89 1018.8
20260502100958 35 0 0.0 0.0 0.00 0.02 0.00 89 1018.8
20260502100458 35 0 0.0 0.0 0.00 0.02 0.00 88 1018.7
20260502091458 37 0 0.0 0.0 0.00 0.02 0.00 85 1018.7
20260502090958 37 0 0.0 0.0 0.00 0.02 0.00 85 1018.7
20260502090458 37 0 0.0 0.0 0.00 0.02 0.00 85 1018.6
20260502071458 40 338 0.0 1.0 0.00 0.02 0.00 84 1018.4
20260502070959 40 338 0.0 1.0 0.00 0.02 0.00 84 1018.5
20260502070458 40 338 0.0 1.0 0.00 0.02 0.00 84 1018.4
20260502065958 40 0 0.0 0.0 0.00 0.02 0.00 83 1018.4
20260502065519 41 0 0.0 0.0 0.00 0.02 0.00 83 1018.4
20260502064958 41 338 0.0 1.0 0.00 0.02 0.00 82 1018.4
20260502064458 41 338 0.0 1.0 0.00 0.02 0.00 82 1018.4
20260502064020 41 326 0.0 2.0 0.00 0.02 0.00 82 1018.5
20260502063458 40 316 0.0 2.0 0.00 0.02 0.00 84 1018.6
20260502062959 40 0 0.0 0.0 0.00 0.02 0.00 85 1018.7
20260502062458 39 0 0.0 0.0 0.00 0.02 0.00 86 1018.8
20260502062019 39 0 0.0 0.0 0.00 0.02 0.00 87 1018.9
20260502061519 39 0 0.0 0.0 0.00 0.02 0.00 88 1018.9
20260502061019 39 0 0.0 0.0 0.00 0.02 0.00 88 1019.0
20260502060519 39 0 0.0 0.0 0.00 0.02 0.00 88 1019.1
20260502060019 39 0 0.0 0.0 0.00 0.02 0.00 88 1019.1
20260502055458 39 0 0.0 0.0 0.00 0.02 0.00 88 1019.1
20260502054958 39 0 0.0 0.0 0.00 0.02 0.00 88 1019.1
20260502054520 39 0 0.0 0.0 0.00 0.02 0.00 88 1019.1
20260502053959 39 0 0.0 0.0 0.00 0.02 0.00 88 1019.1
20260502053458 39 0 0.0 0.0 0.00 0.02 0.00 88 1019.0
20260502052958 39 0 0.0 0.0 0.00 0.02 0.00 88 1019.0
20260502052519 39 0 0.0 0.0 0.00 0.02 0.00 88 1019.0
20260502052019 39 0 0.0 0.0 0.00 0.02 0.00 88 1018.9
20260502051459 39 0 0.0 0.0 0.00 0.02 0.00 88 1018.9
20260502050959 39 0 0.0 0.0 0.00 0.02 0.00 87 1018.9
20260502050458 39 0 0.0 0.0 0.00 0.02 0.00 87 1018.9
20260502045958 39 0 0.0 0.0 0.00 0.02 0.00 87 1018.9
20260502045458 40 0 0.0 0.0 0.00 0.02 0.00 87 1018.9
20260502044958 40 0 0.0 0.0 0.00 0.02 0.00 87 1018.9
20260502044519 40 0 0.0 0.0 0.00 0.02 0.00 87 1018.9
20260502043958 40 0 0.0 0.0 0.00 0.02 0.00 87 1019.0
20260502043458 40 0 0.0 0.0 0.00 0.02 0.00 86 1019.0
20260502042958 40 0 0.0 0.0 0.00 0.02 0.00 86 1019.2
20260502042459 40 0 0.0 0.0 0.00 0.02 0.00 86 1019.1
20260502042020 40 0 0.0 0.0 0.00 0.02 0.00 86 1019.1
20260502041458 40 0 0.0 0.0 0.00 0.02 0.00 85 1019.1
20260502040959 40 0 0.0 0.0 0.00 0.02 0.00 85 1019.0
20260502040459 41 0 0.0 0.0 0.00 0.02 0.00 85 1018.9
20260502035959 41 0 0.0 0.0 0.00 0.02 0.00 85 1019.1
20260502035458 41 0 0.0 0.0 0.00 0.02 0.02 84 1018.9
20260502034958 41 0 0.0 0.0 0.00 0.02 0.02 84 1018.9
20260502034458 41 0 0.0 0.0 0.00 0.02 0.02 84 1019.1
20260502034019 41 0 0.0 0.0 0.00 0.02 0.02 83 1019.1
20260502033458 42 0 0.0 0.0 0.00 0.02 0.02 83 1019.2
20260502032959 42 0 0.0 0.0 0.00 0.02 0.02 83 1019.1